This is the latest recevied weather packets stored in our database for station/object IZ5MMH-4. If no packets are shown the sender has not sent any weather packets the latest 10 day(s).
| Time | Temp. | Humidity | Pressure | Rain* | Wind** | Luminosity | Snow |
|---|---|---|---|---|---|---|---|
| 1788121463 | 27.78° C | 72% | 1016.6 hPa | - | - | - | - |
| 1788120863 | 27.78° C | 72% | 1016.5 hPa | - | - | - | - |
| 1788120262 | 27.78° C | 71% | 1016.5 hPa | - | - | - | - |
| 1788119662 | 27.78° C | 70% | 1016.4 hPa | - | - | - | - |
| 1788119063 | 27.78° C | 69% | 1016.4 hPa | - | - | - | - |
| 1788118463 | 27.78° C | 68% | 1016.4 hPa | - | - | - | - |
| 1788117863 | 27.78° C | 66% | 1016.5 hPa | - | - | - | - |
| 1788117263 | 28.33° C | 66% | 1016.4 hPa | - | - | - | - |
| 1788116663 | 28.33° C | 69% | 1016.2 hPa | - | - | - | - |
| 1788116063 | 28.33° C | 70% | 1016.2 hPa | - | - | - | - |
| 1788115463 | 28.33° C | 70% | 1016 hPa | - | - | - | - |
| 1788114863 | 28.33° C | 70% | 1015.9 hPa | - | - | - | - |
| 1788114263 | 28.33° C | 70% | 1015.8 hPa | - | - | - | - |
| 1788113663 | 28.33° C | 70% | 1015.7 hPa | - | - | - | - |
| 1788113063 | 28.33° C | 68% | 1015.6 hPa | - | - | - | - |
| 1788112463 | 28.89° C | 68% | 1015.6 hPa | - | - | - | - |
| 1788111863 | 28.89° C | 66% | 1015.6 hPa | - | - | - | - |
| 1788111263 | 28.89° C | 65% | 1015.5 hPa | - | - | - | - |
| 1788110663 | 29.44° C | 63% | 1015.5 hPa | - | - | - | - |
| 1788110063 | 29.44° C | 62% | 1015.5 hPa | - | - | - | - |
| 1788109462 | 29.44° C | 63% | 1015.5 hPa | - | - | - | - |
| 1788108863 | 29.44° C | 62% | 1015.6 hPa | - | - | - | - |
| 1788108263 | 29.44° C | 62% | 1015.6 hPa | - | - | - | - |
| 1788107662 | 30° C | 60% | 1015.6 hPa | - | - | - | - |
| 1788107063 | 30.56° C | 57% | 1015.5 hPa | - | - | - | - |
* Rain since midnight (hover to see other rain measurements)
** Current wind speed in m/s (hover to see current wind gust speed)